Location: ?ern� Novina
(50.6762°N, 14.8696°E)
Time: 02:55:19
(UTC+00:00)

GP-B - Pass Details

Date: 03 March 2021
Orbit: 631 x 635 km, 89.8° (Epoch: 12 April)

Event Time Altitude Azimuth Distance (km) Brightness Sun altitude
Rises 17:45:31 0° 159° (SSE) 2,921 6.3 -10.3°
Reaches altitude 10° 17:47:48 10° 152° (SSE) 2,018 5.4 -10.7°
Maximum altitude 17:52:00 44° 81° (E) 890 3.4 -11.3°
Drops below altitude 10° 17:56:14 10° 10° (N) 2,034 5.7 -12.0°
Sets 17:58:33 0° 4° (N) 2,947 6.6 -12.4°
